Regional Weather Roundup
Issued by NWS

Home | Current Version | Previous Version | Graphics & Text | Print | Product List | Glossary On
Versions: 1 2 3 4 5 6 7 8 9 10 11 12 13 14 15 16 17 18 19 20 21 22 23 24 25 26 27 28 29 30 31 32 33 34 35 36 37 38 39 40 41 42 43 44 45 46 47 48 49 50
000
ASUS43 KMPX 300110
RWRMN
WEATHER ROUNDUP FOR MINNESOTA
NATIONAL WEATHER SERVICE TWIN CITIES/CHANHASSEN MN
800 PM CDT FRI AUG 29 2014


NOTE: "FAIR" INDICATES FEW OR NO CLOUDS BELOW 12,000 FEET WITH NO
SIGNIFICANT WEATHER AND/OR OBSTRUCTIONS TO VISIBILITY. N/A MEANS
CURRENT SKY AND/OR WEATHER CONDITIONS ARE NOT AVAILABLE.

MNZ060>063-068>070-300200-
   Twin Cities Metro

CITY           SKY/WX    TMP DP  RH WIND       PRES   REMARKS
TWIN CITIES    LGT RAIN  70  70 100 N5        29.75R
ST PAUL        LGT RAIN  70  68  93 CALM      29.74F
CRYSTAL        CLOUDY    72  69  90 CALM      29.73F FOG
BLAINE         CLOUDY    72  72 100 CALM      29.76R
LAKEVILLE      CLOUDY    72  66  83 W6        29.75S
EDEN PRAIRIE   LGT RAIN  70  68  93 NW6       29.74S
SOUTH ST PAUL  CLOUDY    71  68  90 N3        29.74F
LAKE ELMO      DRIZZLE   68  68 100 CALM      29.76S
$$
MNZ001>005-007-008-013>017-022>024-027-028-300200-
   Northwest Minnesota

CITY           SKY/WX    TMP DP  RH WIND       PRES   REMARKS
BEMIDJI        CLOUDY    67  64  89 NW6       29.78S
HALLOCK        MOCLDY    63  57  82 N12       29.87R
ROSEAU         CLOUDY    61  55  82 N7        29.86R
WARROAD        CLOUDY    61  55  82 N8        29.86R
THIEF RVR FALL CLOUDY    61  57  88 N16G23    29.83R
CROOKSTON      CLOUDY    63  61  94 N14G23    29.83R
FOSSTON        CLOUDY    64  63  94 CALM      29.80R
DETROIT LAKES  PTCLDY    68  63  83 CALM      29.81R
MOORHEAD       MOCLDY    70  70 100 N15       29.80R
PARK RAPIDS    MOCLDY    68  65  90 NW6       29.78R
MAHNOMEN       FAIR      66  64  93 CALM      29.79R
$$
MNZ006-009>011-018-025>026-300200-
   North Central Minnesota

CITY           SKY/WX    TMP DP  RH WIND       PRES   REMARKS
BAUDETTE       CLOUDY    62  58  86 N14G24    29.81R
FLAG ISLAND    CLOUDY    63  55  77 N14       29.83S
INTL FALLS     LGT RAIN  66  63  90 NW10      29.78R FOG
WASKISH        CLOUDY    66  63  88 N6        29.78R
BIG FORK       MOCLDY    66  63  88 CALM      29.79S
LONGVILLE      CLOUDY    66  64  94 CALM      29.78R
GRAND RAPIDS   CLOUDY    64  63  94 CALM      29.79R
CRANE LAKE     CLOUDY    63  61  94 CALM      29.80R
ORR            CLOUDY    64  61  88 CALM      29.76S
COOK           CLOUDY    63  63 100 CALM      29.79S
WALKER         CLOUDY    66  65  94 CALM      29.78R
$$
MNZ012-019>021-037-300200-
   Northeast Minnesota

CITY           SKY/WX    TMP DP  RH WIND       PRES   REMARKS
DULUTH         FOG       62  60  93 CALM      29.78S VSB 3/4
ELY            CLOUDY    61  59  94 CALM      29.79S
HIBBING        CLOUDY    66  63  90 CALM      29.79R
EVELETH        CLOUDY    63  61  94 CALM      29.80R
DULUTH HARBOR  CLOUDY    63  61  94 NE7       29.78R
TWO HARBORS    HAZE      61  55  82 CALM      29.77R VSB 1
SILVER BAY     CLOUDY    61  61 100 CALM      29.76R
GRAND MARAIS     N/A     61  59  93 CALM      29.77R
G MARAIS ARPRT CLOUDY    57  55  94 CALM      29.80R
$$
MNZ029>031-032-039>041-046>048-054>057-064-300200-
   West Central Minnesota

CITY           SKY/WX    TMP DP  RH WIND       PRES   REMARKS
FERGUS FALLS   PTCLDY    70  64  83 CALM      29.78R
WHEATON        MOCLDY    70  64  83 CALM      29.80R
MORRIS         MOCLDY    72  66  83 N6        29.77S
ALEXANDRIA     CLOUDY    69  65  86 NW6       29.80R
ELBOW LAKE     CLOUDY    68  66  91 CALM      29.79R
WADENA         CLOUDY    68  64  88 W3        29.79R
GLENWOOD       CLOUDY    68  66  94 NW5       29.79R
APPLETON       CLOUDY    73  66  78 N5        29.78R
BENSON         CLOUDY    70  66  88 N3        29.78R
ORTONVILLE     CLOUDY    72  64  78 N3        29.79R
MADISON        CLOUDY    75  70  83 CALM      29.78R
WILLMAR        FAIR      70  68  94 S3        29.79R
$$
MNZ033>034-036-042>043-049>051-058-059-300200-
   Central Minnesota

CITY           SKY/WX    TMP DP  RH WIND       PRES   REMARKS
ST CLOUD       CLOUDY    72  69  90 CALM      29.76R
SAUK CENTRE    FAIR      70  66  86 NW6       29.78R
PAYNESVILLE    HVY RAIN  68  66  96 CALM      29.78R
AITKIN         CLOUDY    70  64  83 CALM      29.77S
PINE RIVER     CLOUDY    68  68 100 CALM      29.81S
BRAINERD       CLOUDY    67  65  93 CALM      29.78S
STAPLES        CLOUDY    70  64  83 CALM      29.78R
LONG PRAIRIE   FAIR      68  64  88 NW5       29.79R
LITTLE FALLS   CLOUDY    68  64  88 CALM      29.78R
LITCHFIELD     CLOUDY    72  72 100 CALM      29.77S
BUFFALO        CLOUDY    70  67  92 CALM      29.77S FOG
MAPLE LAKE     CLOUDY    70  69  97 CALM      29.77S FOG
$$
MNZ037-044-045-052-053-300200-
   East Central Minnesota

CITY           SKY/WX    TMP DP  RH WIND       PRES   REMARKS
PRINCETON      CLOUDY    70  66  88 CALM      29.76F
MORA           CLOUDY    64  64 100 CALM      29.78S
CAMBRIDGE      CLOUDY    72  63  73 CALM      29.74F
RUSH CITY      CLOUDY    69  66  90 CALM      29.76S
MOOSE LAKE     CLOUDY    64  64 100 CALM      29.76S
HINCKLEY       CLOUDY    68  68 100 NW6       29.77R
CLOQUET        DRIZZLE   63  63 100 CALM      29.78S
MCGREGOR       CLOUDY    66  64  94 CALM      29.78S
$$
MNZ071>073-080-081-089-090-097-098-300200-
   Southwest Minnesota

CITY           SKY/WX    TMP DP  RH WIND       PRES   REMARKS
MONTEVIDEO     CLOUDY    72  72 100 CALM      29.78R
GRANITE FALLS  CLOUDY    68  68  99 E3        29.78S
CANBY          CLOUDY    72  68  88 W3        29.80R
MARSHALL       CLOUDY    70  66  88 CALM      29.77S
REDWOOD FALLS  LGT RAIN  66  65  96 W5        29.76F
OLIVIA         CLOUDY    68  63  83 CALM      29.76F
PIPESTONE      CLOUDY    70  66  88 CALM      29.80S
WINDOM         LGT RAIN  66  64  94 CALM      29.78R
WORTHINGTON    CLOUDY    68  64  88 N5        29.81S
JACKSON        CLOUDY    70  66  88 SW5       29.78S
TRACY          CLOUDY    68  67  95 CALM      29.78S
SLAYTON        LGT RAIN  66  65  99 CALM      29.80F
$$
MNZ065>067-074>077-082>085-091>093-300200-
   South Central Minnesota

CITY           SKY/WX    TMP DP  RH WIND       PRES   REMARKS
MANKATO        CLOUDY    70  63  78 CALM      29.75F
NEW ULM        CLOUDY    68  68 100 W8        29.76S
ST JAMES       CLOUDY    68  66  94 NW7       29.77S
FAIRMONT       CLOUDY    66  63  88 CALM      29.76F
GLENCOE        CLOUDY    70  66  89 CALM      29.76S
FARIBAULT      CLOUDY    75  66  73 CALM      29.76S
OWATONNA       CLOUDY    73  70  88 SW3       29.76F
WASECA         CLOUDY    72  64  78 CALM      29.78S
ALBERT LEA     RAIN      72  70  94 CALM      29.77F
$$
MNZ078>079-086>088-094>096-300200-
   Southeast Minnesota

CITY           SKY/WX    TMP DP  RH WIND       PRES   REMARKS
ROCHESTER      LGT RAIN  72  69  90 W5        29.79R FOG
RED WING       RAIN      72  70  94 NE8       29.76R
STANTON        CLOUDY    74  69  86 CALM      29.75R
DODGE CENTER   CLOUDY    72  70  94 CALM      29.78S
WINONA         CLOUDY    70  66  88 S3        29.75F
AUSTIN         LGT RAIN  72  66  83 CALM      29.78R
PRESTON        TSTM      67  67 100 S3        29.80S
$$
ABBREVIATIONS USED IN REMARKS
   TC - TEMPERATURES IN CELSIUS
  WCI - WIND CHILL INDEX
   HX - HEAT INDEX
  VSB - VISIBILITY
$$



USA.gov is the U.S. government's official web portal to all federal, state and local government web resources and services.